Location: *
(58.7167°N, 26.1833°E)
Time: 23:16:03
(UTC+00:00)

NOSS 7 (E) - Pass Details

Date: 25 August 2019
Orbit: 399 x 1774 km, 63.3° (Epoch: 23 October)

Event Time Altitude Azimuth Distance (km) Brightness Sun altitude
Exits shadow 20:29:35 55° 177° (S) 493 4.2 -17.3°
Maximum altitude 20:29:56 60° 143° (SE) 467 4.1 -17.3°
Drops below altitude 10° 20:33:04 10° 62° (ENE) 1,496 7.0 -17.5°
Sets 20:35:13 0° 59° (ENE) 2,433 8.2 -17.6°
